Location: Nelson
(41.2830°S, 173.2830°E)
Time: 13:03:44
(UTC+13:00)

Radarsat Rocket - Pass Details

Date: 29 September 2021
Orbit: 933 x 1492 km, 100.6° (Epoch: 27 October)

Event Time Altitude Azimuth Distance (km) Brightness Sun altitude
Rises 04:41:41 0° 78° (ENE) 4,627 8.2 -26.5°
Reaches altitude 10° 04:45:52 10° 96° (E) 3,646 7.8 -25.8°
Maximum altitude 04:50:40 17° 131° (SE) 3,123 7.5 -25.0°
Drops below altitude 10° 04:55:22 10° 165° (SSE) 3,554 7.4 -24.2°
Sets 04:59:20 0° 183° (S) 4,458 7.7 -23.5°
